FW4443 Weather Reports


Display with metric or nautical units.
time (UTC)temp
F
wind
direction
speed
MPH
gust
MPH
rain 1hr
in
rain 24hr
in
rain mn
in
humidity
%
barometer
mb
20260506134516 55 0 0.0 0.0 0.00 0.00 0.00 53 1016.3
20260506133859 54 0 0.0 0.0 0.00 0.00 0.00 52 1016.2
20260506133541 54 0 0.0 0.0 0.00 0.00 0.00 52 1016.2
20260506133223 54 0 0.0 0.0 0.00 0.00 0.00 51 1016.2
20260506132906 54 0 0.0 0.0 0.00 0.00 0.00 51 1016.1
20260506132543 54 0 0.0 0.0 0.00 0.00 0.00 52 1016.1
20260506132219 54 0 0.0 0.0 0.00 0.00 0.00 52 1016.0
20260506131857 54 0 0.0 1.0 0.00 0.00 0.00 52 1015.9
20260506131537 54 0 0.0 1.0 0.00 0.00 0.00 51 1015.9
20260506131220 55 36 0.0 1.0 0.00 0.00 0.00 50 1015.9
20260506130901 55 270 0.0 0.0 0.00 0.00 0.00 49 1015.9
20260506130246 55 270 0.0 0.0 0.00 0.00 0.00 49 1015.8
20260506125921 55 270 0.0 0.0 0.00 0.00 0.00 48 1015.8
20260506125004 55 270 0.0 0.0 0.00 0.00 0.00 48 1015.6
20260506124641 55 270 0.0 0.0 0.00 0.00 0.00 48 1015.6
20260506124325 55 269 0.0 2.0 0.00 0.00 0.00 48 1015.5
20260506124002 55 269 0.0 2.0 0.00 0.00 0.00 48 1015.4
20260506123646 56 269 0.0 1.0 0.00 0.00 0.00 48 1015.3
20260506123326 56 269 0.0 1.0 0.00 0.00 0.00 48 1015.3
20260506123008 56 269 0.0 0.0 0.00 0.00 0.00 48 1015.2
20260506122649 56 269 0.0 1.0 0.00 0.00 0.00 48 1015.3
20260506122329 56 286 0.0 0.0 0.00 0.00 0.00 48 1015.2
20260506122014 56 286 0.0 0.0 0.00 0.00 0.00 48 1015.2
20260506121355 56 286 0.0 2.0 0.00 0.00 0.00 47 1015.1
20260506121036 56 246 0.0 2.0 0.00 0.00 0.00 47 1015.0
20260506120718 56 217 0.0 2.0 0.00 0.00 0.00 47 1015.0
20260506120404 56 269 0.0 1.0 0.00 0.00 0.00 47 1015.0
20260506120048 56 332 0.0 2.0 0.00 0.00 0.00 47 1015.0
20260506115422 56 332 0.0 2.0 0.00 0.00 0.00 47 1015.0
20260506115057 56 180 0.0 1.0 0.00 0.00 0.00 47 1014.9
20260506114738 56 250 0.0 1.0 0.00 0.00 0.00 47 1015.0
20260506114422 56 178 0.0 1.0 0.00 0.00 0.00 47 1014.9
20260506114101 56 178 0.0 1.0 0.00 0.00 0.00 46 1014.7
20260506113746 56 311 0.0 0.0 0.00 0.00 0.00 46 1014.8
20260506113429 56 311 0.0 0.0 0.00 0.00 0.00 46 1014.7
20260506112805 57 311 0.0 0.0 0.00 0.00 0.00 45 1014.6
20260506112143 57 316 0.0 1.0 0.00 0.00 0.00 45 1014.7
20260506110922 57 317 0.0 1.0 0.00 0.00 0.00 45 1014.7
20260506110606 57 222 0.0 0.0 0.00 0.00 0.00 44 1014.7
20260506110244 57 222 0.0 2.0 0.00 0.00 0.00 44 1014.6
20260506105630 57 219 0.0 2.0 0.00 0.00 0.00 44 1014.5
20260506105305 57 212 0.0 2.0 0.00 0.00 0.00 44 1014.5
20260506104949 57 216 0.0 2.0 0.00 0.00 0.00 44 1014.5
20260506104630 57 215 0.0 2.0 0.00 0.00 0.00 44 1014.4
20260506104306 57 228 0.0 2.0 0.00 0.00 0.00 44 1014.4
20260506103948 57 236 0.0 2.0 0.00 0.00 0.00 44 1014.3
20260506103625 57 173 0.0 2.0 0.00 0.00 0.00 44 1014.2
20260506103307 57 307 0.0 2.0 0.00 0.00 0.00 44 1014.1
20260506102640 57 226 0.0 1.0 0.00 0.00 0.00 44 1014.1
20260506102317 57 226 0.0 1.0 0.00 0.00 0.00 44 1014.1
20260506101954 57 226 0.0 1.0 0.00 0.00 0.00 44 1014.1
20260506101632 57 226 0.0 0.0 0.00 0.00 0.00 44 1014.1
20260506101314 57 226 0.0 0.0 0.00 0.00 0.00 44 1014.1
20260506100957 57 226 0.0 0.0 0.00 0.00 0.00 44 1014.0
20260506100638 58 226 0.0 0.0 0.00 0.00 0.00 44 1014.0
20260506100319 58 225 0.0 0.0 0.00 0.00 0.00 44 1013.9
20260506100003 58 225 0.0 0.0 0.00 0.00 0.00 43 1013.8
20260506095645 58 225 0.0 0.0 0.00 0.00 0.00 43 1013.8
20260506095328 58 225 0.0 0.0 0.00 0.00 0.00 43 1013.7
20260506095012 58 225 0.0 1.0 0.00 0.00 0.00 43 1013.7
20260506094352 58 302 0.0 0.0 0.00 0.00 0.00 43 1013.6
20260506094026 58 302 0.0 0.0 0.00 0.00 0.00 43 1013.6
20260506093705 58 302 0.0 0.0 0.00 0.00 0.00 42 1013.6
20260506093345 59 303 0.0 0.0 0.00 0.00 0.00 42 1013.7
20260506092723 59 302 0.0 0.0 0.00 0.00 0.00 41 1013.7
20260506092402 59 241 0.0 0.0 0.00 0.00 0.00 41 1013.6
20260506092039 59 241 0.0 1.0 0.00 0.00 0.00 41 1013.6
20260506091719 59 241 0.0 1.0 0.00 0.00 0.00 40 1013.6
20260506091354 59 241 0.0 1.0 0.00 0.00 0.00 40 1013.6
20260506091033 59 241 0.0 0.0 0.00 0.00 0.00 40 1013.6
20260506090707 60 241 0.0 2.0 0.00 0.00 0.00 40 1013.6
20260506090342 60 240 0.0 2.0 0.00 0.00 0.00 39 1013.6
20260506085716 60 240 0.0 0.0 0.00 0.00 0.00 39 1013.5
20260506085401 60 240 0.0 1.0 0.00 0.00 0.00 39 1013.6
20260506085040 60 237 0.0 1.0 0.00 0.00 0.00 39 1013.6
20260506084424 60 180 0.0 0.0 0.00 0.00 0.00 39 1013.5
20260506084104 60 178 0.0 2.0 0.00 0.00 0.00 39 1013.5
20260506083745 60 213 0.0 3.0 0.00 0.00 0.00 39 1013.4
20260506083431 60 206 0.0 3.0 0.00 0.00 0.00 39 1013.4
20260506083112 61 170 0.0 3.0 0.00 0.00 0.00 39 1013.5
20260506082752 61 170 0.0 3.0 0.00 0.00 0.00 38 1013.5
20260506082435 61 170 0.0 3.0 0.00 0.00 0.00 38 1013.4
20260506081810 61 161 0.0 2.0 0.00 0.00 0.00 37 1013.3
20260506081147 61 267 0.0 0.0 0.00 0.00 0.00 37 1013.3
20260506080824 62 0 0.0 0.0 0.00 0.00 0.00 36 1013.5
20260506080158 62 0 0.0 2.0 0.00 0.00 0.00 36 1013.4
20260506073510 64 0 0.0 2.0 0.00 0.00 0.00 34 1013.3
20260506073145 64 0 0.0 2.0 0.00 0.00 0.00 34 1013.3
20260506072825 64 0 0.0 2.0 0.00 0.00 0.00 33 1013.3
20260506072504 64 0 0.0 2.0 0.00 0.00 0.00 33 1013.3
20260506072139 64 0 0.0 4.0 0.00 0.00 0.00 33 1013.3
20260506071519 65 0 1.0 4.0 0.00 0.00 0.00 33 1013.3
20260506071157 65 0 1.0 4.0 0.00 0.00 0.00 33 1013.3
20260506070532 65 0 1.0 4.0 0.00 0.00 0.00 33 1013.3
20260506070209 65 0 0.0 3.0 0.00 0.00 0.00 33 1013.3
20260506062305 66 0 4.0 10.0 0.00 0.00 0.00 32 1012.9
20260506061648 66 0 4.0 9.0 0.00 0.00 0.00 32 1012.8
20260506061325 67 0 4.0 8.0 0.00 0.00 0.00 32 1012.7
20260506061009 67 0 3.0 8.0 0.00 0.00 0.00 31 1012.8
20260506060653 67 0 3.0 10.0 0.00 0.00 0.00 31 1012.6
20260506060336 67 0 3.0 10.0 0.00 0.00 0.00 31 1012.6
20260506051144 68 0 5.0 13.0 0.00 0.00 0.00 29 1012.2
20260506050524 68 0 5.0 14.0 0.00 0.00 0.00 29 1012.1
20260506050206 69 0 5.0 14.0 0.00 0.00 0.00 29 1012.1
20260506044933 69 0 6.0 17.0 0.00 0.00 0.00 30 1012.1
20260506044610 69 0 6.0 17.0 0.00 0.00 0.00 30 1012.1
20260506044255 69 0 6.0 17.0 0.00 0.00 0.00 29 1012.0
20260506043936 69 0 6.0 16.0 0.00 0.00 0.00 30 1011.9
20260506043619 69 0 5.0 16.0 0.00 0.00 0.00 30 1011.9
20260506043302 69 0 5.0 16.0 0.00 0.00 0.00 30 1012.0
20260506042941 69 0 4.0 10.0 0.00 0.00 0.00 30 1011.9
20260506042620 69 0 4.0 10.0 0.00 0.00 0.00 30 1011.9
20260506042256 69 0 4.0 10.0 0.00 0.00 0.00 30 1011.8
20260506041933 69 0 4.0 10.0 0.00 0.00 0.00 30 1011.8
20260506041611 69 0 4.0 10.0 0.00 0.00 0.00 29 1011.8
20260506041256 69 0 3.0 10.0 0.00 0.00 0.00 29 1011.7
20260506040939 70 0 3.0 9.0 0.00 0.00 0.00 29 1011.7
20260506040616 70 0 3.0 9.0 0.00 0.00 0.00 29 1011.6
20260506040256 70 0 5.0 11.0 0.00 0.00 0.00 29 1011.5
20260506035933 70 0 4.0 11.0 0.00 0.00 0.00 29 1011.5
20260506035618 70 0 4.0 11.0 0.00 0.00 0.00 29 1011.4
20260506035301 70 0 4.0 11.0 0.00 0.00 0.00 29 1011.4
20260506034937 70 0 5.0 11.0 0.00 0.00 0.00 29 1011.3
20260506034619 70 0 4.0 11.0 0.00 0.00 0.00 29 1011.3
20260506034257 70 0 4.0 11.0 0.00 0.00 0.00 29 1011.1
20260506033631 70 0 3.0 11.0 0.00 0.00 0.00 29 1011.2
20260506033305 70 0 3.0 11.0 0.00 0.00 0.00 29 1011.0
20260506032946 70 0 4.0 11.0 0.00 0.00 0.00 29 1010.9
20260506032622 71 0 3.0 11.0 0.00 0.00 0.00 29 1010.9
20260506032305 71 0 3.0 8.0 0.00 0.00 0.00 28 1010.8
20260506031937 71 0 3.0 12.0 0.00 0.00 0.00 28 1010.7
20260506031623 71 0 3.0 12.0 0.00 0.00 0.00 28 1010.7
20260506031300 71 0 4.0 12.0 0.00 0.00 0.00 28 1010.6
20260506030944 71 0 5.0 12.0 0.00 0.00 0.00 28 1010.6
20260506030627 71 0 5.0 12.0 0.00 0.00 0.00 28 1010.5
20260506030310 71 0 4.0 12.0 0.00 0.00 0.00 28 1010.4
20260506025950 71 0 4.0 9.0 0.00 0.00 0.00 28 1010.4
20260506025635 72 0 4.0 9.0 0.00 0.00 0.00 28 1010.3
20260506025315 72 0 4.0 9.0 0.00 0.00 0.00 28 1010.4
20260506024953 72 0 3.0 9.0 0.00 0.00 0.00 27 1010.3
20260506024637 72 0 3.0 8.0 0.00 0.00 0.00 26 1010.2
20260506024312 72 0 3.0 9.0 0.00 0.00 0.00 26 1010.2
20260506023948 72 0 3.0 9.0 0.00 0.00 0.00 26 1010.1
20260506023632 72 0 3.0 9.0 0.00 0.00 0.00 25 1010.1
20260506023312 72 0 3.0 9.0 0.00 0.00 0.00 26 1010.1
20260506022950 72 0 3.0 9.0 0.00 0.00 0.00 25 1010.0
20260506022331 72 0 3.0 8.0 0.00 0.00 0.00 25 1009.9
20260506022015 72 0 4.0 10.0 0.00 0.00 0.00 25 1010.0
20260506021658 72 0 3.0 10.0 0.00 0.00 0.00 25 1009.9
20260506021333 72 0 3.0 10.0 0.00 0.00 0.00 24 1009.9
20260506020716 73 0 3.0 10.0 0.00 0.00 0.00 24 1009.8
20260506020359 73 0 4.0 10.0 0.00 0.00 0.00 24 1009.8
20260506020037 73 0 3.0 9.0 0.00 0.00 0.00 24 1009.8
20260506015712 73 0 3.0 8.0 0.00 0.00 0.00 24 1009.8
20260506015052 73 0 3.0 8.0 0.00 0.00 0.00 24 1009.7
20260506014727 73 0 3.0 11.0 0.00 0.00 0.00 24 1009.7
20260506014410 73 0 3.0 11.0 0.00 0.00 0.00 24 1009.8
20260506014048 73 0 3.0 11.0 0.00 0.00 0.00 23 1009.7
20260506013731 73 0 4.0 11.0 0.00 0.00 0.00 24 1009.8
20260506013414 73 0 4.0 11.0 0.00 0.00 0.00 23 1009.7
20260506012456 73 212 3.0 9.0 0.00 0.00 0.00 23 1009.7
20260506011536 74 176 4.0 9.0 0.00 0.00 0.00 22 1009.6
20260506011216 74 171 4.0 9.0 0.00 0.00 0.00 22 1009.6
20260506010855 74 252 4.0 9.0 0.00 0.00 0.00 22 1009.6
20260506010529 74 156 4.0 9.0 0.00 0.00 0.00 22 1009.6
20260506010215 74 178 4.0 11.0 0.00 0.00 0.00 21 1009.6
20260506005859 74 148 4.0 11.0 0.00 0.00 0.00 21 1009.6
20260506005242 74 209 4.0 12.0 0.00 0.00 0.00 21 1009.6
20260506004628 74 181 3.0 12.0 0.00 0.00 0.00 21 1009.5
20260506003706 74 198 3.0 12.0 0.00 0.00 0.00 21 1009.5
20260506003352 74 173 1.0 8.0 0.00 0.00 0.00 21 1009.4
20260506003029 74 202 1.0 7.0 0.00 0.00 0.00 20 1009.5
20260506002704 74 34 1.0 7.0 0.00 0.00 0.00 22 1009.5
20260506002339 74 71 2.0 11.0 0.00 0.00 0.00 22 1009.5
20260506002020 75 106 4.0 11.0 0.00 0.00 0.00 20 1009.4
20260506001704 75 146 5.0 11.0 0.00 0.00 0.00 21 1009.5
20260506001344 75 163 5.0 11.0 0.00 0.00 0.00 20 1009.5
20260506001018 75 169 4.0 11.0 0.00 0.00 0.00 20 1009.5
20260506000656 75 165 4.0 11.0 0.00 0.00 0.00 20 1009.5
20260506000331 76 147 3.0 10.0 0.00 0.00 0.00 19 1009.4
20260506000004 76 209 2.0 8.0 0.00 0.00 0.00 20 1009.3
20260505235641 76 251 2.0 8.0 0.00 0.00 0.00 20 1009.3
20260505235319 76 267 2.0 12.0 0.00 0.00 0.00 21 1009.3
20260505235002 75 254 4.0 12.0 0.00 0.00 0.00 20 1009.3
20260505234641 76 211 4.0 12.0 0.00 0.00 0.00 20 1009.2
20260505234316 75 171 4.0 12.0 0.00 0.00 0.00 20 1009.3
20260505234002 75 239 2.0 12.0 0.00 0.00 0.00 20 1009.2
20260505233644 75 163 2.0 12.0 0.00 0.00 0.00 20 1009.3
20260505233319 75 126 1.0 7.0 0.00 0.00 0.00 20 1009.3
20260505233004 75 207 2.0 7.0 0.00 0.00 0.00 20 1009.4
20260505232046 75 242 3.0 12.0 0.00 0.00 0.00 21 1009.3
20260505231727 75 180 4.0 12.0 0.00 0.00 0.00 20 1009.5
20260505231407 76 227 5.0 12.0 0.00 0.00 0.00 21 1009.5
20260505231042 76 149 6.0 12.0 0.00 0.00 0.00 22 1009.5
20260505230719 75 199 3.0 12.0 0.00 0.00 0.00 20 1009.5
20260505230400 76 165 3.0 11.0 0.00 0.00 0.00 19 1009.5
20260505230033 76 138 1.0 7.0 0.00 0.00 0.00 20 1009.5
20260505225717 77 34 2.0 10.0 0.00 0.00 0.00 19 1009.6
20260505225353 77 34 3.0 10.0 0.00 0.00 0.00 20 1009.7
20260505225038 77 339 3.0 10.0 0.00 0.00 0.00 19 1009.7
20260505224712 77 345 4.0 10.0 0.00 0.00 0.00 21 1009.8
20260505224349 77 86 3.0 10.0 0.00 0.00 0.00 22 1009.8
20260505224031 77 121 4.0 10.0 0.00 0.00 0.00 23 1009.9
20260505223708 76 107 2.0 8.0 0.00 0.00 0.00 21 1009.9
20260505223350 76 78 3.0 16.0 0.00 0.00 0.00 20 1009.9
20260505223029 75 128 3.0 16.0 0.00 0.00 0.00 23 1010.0
20260505222709 76 190 4.0 16.0 0.00 0.00 0.00 23 1010.0
20260505222046 76 169 7.0 16.0 0.00 0.00 0.00 23 1010.1
20260505221730 76 154 7.0 16.0 0.00 0.00 0.00 20 1010.1
20260505221408 76 118 4.0 12.0 0.00 0.00 0.00 21 1010.1
20260505221048 76 195 3.0 11.0 0.00 0.00 0.00 22 1010.1
20260505220727 76 209 2.0 10.0 0.00 0.00 0.00 20 1010.2
20260505220410 76 43 2.0 8.0 0.00 0.00 0.00 20 1010.3
20260505220055 76 106 1.0 8.0 0.00 0.00 0.00 23 1010.3
20260505215433 77 74 2.0 7.0 0.00 0.00 0.00 21 1010.5
20260505215116 78 66 3.0 7.0 0.00 0.00 0.00 24 1010.4
20260505214451 76 19 3.0 13.0 0.00 0.00 0.00 21 1010.5
20260505214129 76 71 4.0 13.0 0.00 0.00 0.00 22 1010.5
20260505213807 76 116 5.0 13.0 0.00 0.00 0.00 24 1010.5
20260505213448 77 58 6.0 13.0 0.00 0.00 0.00 22 1010.6
20260505213128 78 114 6.0 13.0 0.00 0.00 0.00 25 1010.7
20260505212810 77 117 5.0 11.0 0.00 0.00 0.00 26 1010.6
20260505212452 76 101 5.0 11.0 0.00 0.00 0.00 25 1010.7
20260505211834 76 103 4.0 15.0 0.00 0.00 0.00 24 1010.9
20260505211515 76 109 4.0 15.0 0.00 0.00 0.00 22 1010.9
20260505210852 77 106 5.0 15.0 0.00 0.00 0.00 25 1010.9
20260505205936 74 113 3.0 11.0 0.00 0.00 0.00 25 1011.0
20260505205621 74 234 5.0 13.0 0.00 0.00 0.00 24 1011.0
20260505205307 74 151 4.0 13.0 0.00 0.00 0.00 24 1011.0
20260505204949 74 148 4.0 13.0 0.00 0.00 0.00 27 1011.0
20260505204625 74 214 4.0 13.0 0.00 0.00 0.00 24 1011.1
20260505204309 74 163 4.0 13.0 0.00 0.00 0.00 24 1011.0
20260505203951 76 217 4.0 13.0 0.00 0.00 0.00 22 1011.0
20260505203629 75 115 2.0 12.0 0.00 0.00 0.00 27 1010.9
20260505203305 74 71 3.0 12.0 0.00 0.00 0.00 25 1011.1
20260505202946 74 21 4.0 12.0 0.00 0.00 0.00 26 1011.0
20260505202625 74 100 4.0 12.0 0.00 0.00 0.00 24 1011.0
20260505202300 74 106 5.0 12.0 0.00 0.00 0.00 24 1011.1
20260505201942 74 138 3.0 11.0 0.00 0.00 0.00 23 1011.1
20260505201619 74 180 5.0 12.0 0.00 0.00 0.00 26 1011.1
20260505201301 75 175 6.0 12.0 0.00 0.00 0.00 24 1011.1
20260505200940 76 101 6.0 12.0 0.00 0.00 0.00 25 1011.2
20260505200614 75 101 5.0 14.0 0.00 0.00 0.00 26 1011.2
20260505200250 75 100 4.0 14.0 0.00 0.00 0.00 26 1011.2
20260505195325 74 137 6.0 14.0 0.00 0.00 0.00 26 1011.5
20260505195010 73 113 5.0 14.0 0.00 0.00 0.00 27 1011.5
20260505194654 73 136 4.0 11.0 0.00 0.00 0.00 28 1011.4
20260505194328 73 126 5.0 11.0 0.00 0.00 0.00 28 1011.5
20260505194011 73 78 6.0 13.0 0.00 0.00 0.00 25 1011.5
20260505193053 74 130 6.0 13.0 0.00 0.00 0.00 27 1011.6
20260505192735 74 144 5.0 13.0 0.00 0.00 0.00 26 1011.7
20260505192409 74 177 5.0 13.0 0.00 0.00 0.00 32 1011.7
20260505192043 73 144 4.0 13.0 0.00 0.00 0.00 29 1011.6
20260505191724 73 128 5.0 13.0 0.00 0.00 0.00 29 1011.6
20260505191404 73 125 5.0 13.0 0.00 0.00 0.00 28 1011.6
20260505191049 73 92 6.0 13.0 0.00 0.00 0.00 30 1011.6
20260505190734 72 140 6.0 13.0 0.00 0.00 0.00 28 1011.7
20260505190418 72 140 6.0 13.0 0.00 0.00 0.00 28 1011.9
20260505185754 73 0 6.0 15.0 0.00 0.00 0.00 30 1011.7
20260505185430 73 186 5.0 15.0 0.00 0.00 0.00 28 1011.8
20260505185110 73 178 6.0 15.0 0.00 0.00 0.00 28 1011.8
20260505184745 73 144 6.0 15.0 0.00 0.00 0.00 28 1011.7
20260505184424 72 121 6.0 15.0 0.00 0.00 0.00 28 1011.8
20260505183802 71 121 3.0 13.0 0.00 0.00 0.00 29 1011.9
20260505183441 71 206 3.0 13.0 0.00 0.00 0.00 29 1011.8
20260505183126 71 124 4.0 17.0 0.00 0.00 0.00 29 1011.8
20260505182808 71 113 6.0 17.0 0.00 0.00 0.00 29 1011.9
20260505182147 71 197 8.0 17.0 0.00 0.00 0.00 29 1011.8
20260505181825 70 192 9.0 17.0 0.00 0.00 0.00 30 1011.8
20260505181508 71 0 8.0 17.0 0.00 0.00 0.00 29 1011.8
20260505181143 71 0 6.0 16.0 0.00 0.00 0.00 33 1011.8
20260505180823 70 158 5.0 16.0 0.00 0.00 0.00 30 1011.9
20260505180502 70 148 5.0 16.0 0.00 0.00 0.00 30 1011.9
20260505180144 70 172 5.0 16.0 0.00 0.00 0.00 29 1011.9
20260505175827 69 165 4.0 15.0 0.00 0.00 0.00 31 1011.8
20260505175503 69 167 4.0 15.0 0.00 0.00 0.00 30 1011.8
20260505174840 70 116 5.0 15.0 0.00 0.00 0.00 33 1011.8
20260505174520 70 187 4.0 15.0 0.00 0.00 0.00 30 1011.9
20260505174200 70 88 4.0 11.0 0.00 0.00 0.00 32 1011.8
20260505173842 70 132 4.0 11.0 0.00 0.00 0.00 32 1011.7
20260505173524 68 135 4.0 11.0 0.00 0.00 0.00 32 1011.8
20260505173208 68 180 5.0 14.0 0.00 0.00 0.00 32 1012.0
20260505171942 68 0 6.0 14.0 0.00 0.00 0.00 32 1011.9
20260505171622 69 0 4.0 14.0 0.00 0.00 0.00 31 1011.8
20260505171259 69 94 5.0 14.0 0.00 0.00 0.00 33 1011.8
20260505170935 68 134 5.0 10.0 0.00 0.00 0.00 33 1011.8
20260505170613 68 0 5.0 10.0 0.00 0.00 0.00 33 1011.8
20260505170253 67 0 5.0 10.0 0.00 0.00 0.00 33 1011.8
20260505165937 68 0 4.0 10.0 0.00 0.00 0.00 34 1011.9
20260505165622 67 154 3.0 9.0 0.00 0.00 0.00 35 1011.9
20260505164655 66 0 2.0 7.0 0.00 0.00 0.00 38 1012.0
20260505164333 65 140 1.0 5.0 0.00 0.00 0.00 36 1012.1
20260505164012 65 123 2.0 5.0 0.00 0.00 0.00 38 1012.0
20260505163655 65 169 2.0 5.0 0.00 0.00 0.00 38 1012.0
20260505163336 65 165 2.0 5.0 0.00 0.00 0.00 36 1012.1
20260505163021 65 0 1.0 5.0 0.00 0.00 0.00 37 1012.1
20260505162401 64 0 1.0 5.0 0.00 0.00 0.00 39 1012.0
20260505161745 64 0 1.0 5.0 0.00 0.00 0.00 38 1012.2
20260505161420 64 0 1.0 5.0 0.00 0.00 0.00 43 1012.1
20260505161102 63 0 1.0 5.0 0.00 0.00 0.00 39 1012.1
20260505160740 63 0 1.0 8.0 0.00 0.00 0.00 39 1012.2
20260505160414 63 0 2.0 8.0 0.00 0.00 0.00 40 1012.2
20260505153053 61 0 3.0 8.0 0.00 0.00 0.00 45 1012.1
20260505152728 60 0 3.0 8.0 0.00 0.00 0.00 45 1012.1
20260505152405 60 0 3.0 8.0 0.00 0.00 0.00 46 1012.0
20260505152039 60 0 3.0 8.0 0.00 0.00 0.00 45 1012.1
20260505151723 60 0 3.0 7.0 0.00 0.00 0.00 45 1012.1
20260505151408 60 0 3.0 7.0 0.00 0.00 0.00 45 1011.9
20260505151046 60 0 3.0 7.0 0.00 0.00 0.00 45 1011.9
20260505150724 60 0 3.0 7.0 0.00 0.00 0.00 44 1011.8
20260505150406 60 0 3.0 7.0 0.00 0.00 0.00 45 1011.8
20260505140546 57 0 2.0 7.0 0.00 0.00 0.00 48 1011.4